Starlink 31553

operational
NORAD ID: 59363 Int'l Des: 2024-060 Owner: SPXS Country: US Constellation: starlink
LEOCIRCULAR

About Starlink 31553

Description loading...

Live Position

Loading 3D Globe...

Upcoming Passes

Altitude History

Altitude vs Time

uPlot chart will show altitude changes over time

Two-Line Element Set

1 59363U 24060R 26036.46318353 .00001955 00000-0 80525-4 0 9992
2 59363 42.9996 74.9601 0001011 254.4083 105.6657 15.27588537105213
Epoch: Feb 5, 2026 • Age: 7 hours

Current Status

Altitude 493.8 km
Velocity 7.62 km/s
Sub-Earth Point -38.58°S, 101.34°W
Launch Date Mar 31, 2024
Age 1.8 years
Type internet

Technical Details

Classification Payload
Mass 730.00 kg
Dry Mass 700.00 kg
Total Mass 730.00 kg
Length 0.30 m
Diameter 4.10 m
Span 29.00 m
Shape Box + pan
Manufacturer SPXS
Bus Type Starlink V2M
Phase Status In Orbit
Owner/State SPXS/US

Large Constellations

Loading constellations...